GW3137 Weather Reports


Display with metric or nautical units.
time (UTC)temp
F
wind
direction
speed
MPH
gust
MPH
rain 1hr
in
rain 24hr
in
rain mn
in
humidity
%
barometer
mb
20260906130704 54 80 1.0 1.0 0.00 0.00 0.00 84 1015.9
20260906130204 54 80 0.0 3.0 0.00 0.00 0.00 84 1015.9
20260906123703 54 120 1.0 3.0 0.00 0.00 0.00 87 1016.0
20260906120703 53 69 0.0 0.0 0.00 0.00 0.00 88 1015.8
20260906113703 54 69 0.0 0.0 0.00 0.00 0.00 87 1016.0
20260906113204 54 69 0.0 0.0 0.00 0.00 0.00 87 1016.1
20260906110704 55 69 0.0 0.0 0.00 0.00 0.00 87 1016.0
20260906110204 54 69 0.0 3.0 0.00 0.00 0.00 87 1016.0
20260906103704 55 33 1.0 2.0 0.00 0.00 0.00 87 1016.0
20260906103204 56 33 0.0 2.0 0.00 0.00 0.00 87 1015.9
20260906100704 56 33 0.0 0.0 0.00 0.00 0.00 88 1016.0
20260906100203 56 33 0.0 0.0 0.00 0.00 0.00 88 1016.0
20260906093703 56 33 0.0 0.0 0.00 0.00 0.00 87 1015.9
20260906093204 56 33 0.0 0.0 0.00 0.00 0.00 87 1015.9
20260906090704 58 33 0.0 2.0 0.00 0.00 0.00 86 1015.9
20260906090204 57 33 0.0 3.0 0.00 0.00 0.00 86 1015.9
20260906083204 56 71 0.0 0.0 0.00 0.00 0.00 85 1016.0
20260906080203 56 71 0.0 0.0 0.00 0.00 0.00 84 1016.0
20260906073704 57 71 0.0 1.0 0.00 0.00 0.00 83 1015.9
20260906073204 57 71 1.0 3.0 0.00 0.00 0.00 83 1016.1
20260906070703 58 71 2.0 3.0 0.00 0.00 0.00 82 1016.2
20260906070204 58 71 2.0 3.0 0.00 0.00 0.00 82 1016.2
20260906063704 58 71 1.0 3.0 0.00 0.00 0.00 82 1016.2
20260906063203 58 71 1.0 3.0 0.00 0.00 0.00 82 1016.3
20260906060704 59 42 0.0 0.0 0.00 0.00 0.00 78 1016.3
20260906060204 59 42 0.0 0.0 0.00 0.00 0.00 79 1016.3
20260906053704 60 42 0.0 0.0 0.00 0.00 0.00 78 1016.4
20260906053204 60 42 0.0 0.0 0.00 0.00 0.00 78 1016.5
20260906050203 61 42 0.0 0.0 0.00 0.00 0.00 77 1016.6
20260906043704 61 42 0.0 0.0 0.00 0.00 0.00 77 1016.5
20260906043204 61 42 0.0 0.0 0.00 0.00 0.00 77 1016.6
20260906040703 63 42 0.0 0.0 0.00 0.00 0.00 72 1016.7
20260906040204 63 42 0.0 3.0 0.00 0.00 0.00 72 1016.6
20260906033704 63 325 0.0 0.0 0.00 0.00 0.00 73 1016.7
20260906033203 64 323 0.0 2.0 0.00 0.00 0.00 72 1016.6
20260906030704 65 26 0.0 2.0 0.00 0.00 0.00 68 1016.4
20260906030204 65 26 1.0 2.0 0.00 0.00 0.00 68 1016.4
20260906023203 67 26 0.0 3.0 0.00 0.00 0.00 63 1016.2
20260906020704 69 26 0.0 0.0 0.00 0.00 0.00 58 1016.2
20260906013703 72 15 2.0 5.0 0.00 0.00 0.00 54 1016.1
20260906013204 72 306 2.0 3.0 0.00 0.00 0.00 53 1016.1
20260906010704 73 110 2.0 3.0 0.00 0.00 0.00 50 1016.0
20260906010205 73 136 2.0 6.0 0.00 0.00 0.00 50 1016.0
20260906003704 73 304 1.0 2.0 0.00 0.00 0.00 51 1016.0
20260906003204 74 321 1.0 3.0 0.00 0.00 0.00 50 1016.0
20260906000704 71 253 1.0 2.0 0.00 0.00 0.00 53 1016.0
20260906000204 71 242 1.0 6.0 0.00 0.00 0.00 54 1016.0
20260905233703 72 215 1.0 3.0 0.00 0.00 0.00 52 1016.1
20260905233204 72 355 0.0 3.0 0.00 0.00 0.00 52 1016.1
20260905230704 73 344 2.0 3.0 0.00 0.00 0.00 49 1016.3
20260905230204 72 7 1.0 3.0 0.00 0.00 0.00 53 1016.4
20260905223704 70 201 1.0 3.0 0.00 0.00 0.00 58 1016.7
20260905223204 70 322 1.0 3.0 0.00 0.00 0.00 59 1016.7
20260905220704 66 140 1.0 3.0 0.00 0.00 0.00 65 1017.0
20260905220204 66 173 1.0 5.0 0.00 0.00 0.00 66 1017.1
20260905213704 66 56 1.0 3.0 0.00 0.00 0.00 67 1017.2
20260905213203 66 124 1.0 3.0 0.00 0.00 0.00 67 1017.3
20260905210703 65 136 1.0 3.0 0.00 0.00 0.00 70 1017.4
20260905210204 65 237 1.0 3.0 0.00 0.00 0.00 70 1017.4
20260905203704 64 122 1.0 3.0 0.00 0.00 0.00 68 1017.5
20260905203205 64 202 1.0 5.0 0.00 0.00 0.00 68 1017.6
20260905200205 63 210 1.0 5.0 0.00 0.00 0.00 67 1017.8
20260905193203 63 204 1.0 7.0 0.00 0.00 0.00 69 1017.8
20260905190704 64 186 2.0 3.0 0.00 0.00 0.00 71 1018.0
20260905183704 63 172 3.0 6.0 0.00 0.00 0.00 73 1018.2
20260905183204 63 165 2.0 7.0 0.00 0.00 0.00 73 1018.1
20260905180204 63 189 2.0 6.0 0.00 0.00 0.00 74 1018.2
20260905173704 63 85 1.0 3.0 0.00 0.00 0.00 74 1018.1
20260905173204 62 251 0.0 7.0 0.00 0.00 0.00 73 1018.1
20260905170704 61 293 2.0 3.0 0.00 0.00 0.00 75 1018.0
20260905163704 61 308 2.0 3.0 0.00 0.00 0.00 74 1017.8
20260905163204 62 194 0.0 3.0 0.00 0.00 0.00 75 1017.8
20260905160704 60 269 1.0 2.0 0.00 0.00 0.00 78 1017.8
20260905160204 59 191 1.0 3.0 0.00 0.00 0.00 79 1017.9
20260905153704 58 281 1.0 2.0 0.00 0.00 0.00 84 1017.9
20260905153204 57 287 2.0 3.0 0.00 0.00 0.00 84 1018.0
20260905150704 56 128 0.0 2.0 0.00 0.00 0.00 86 1017.9
20260905150203 56 128 0.0 3.0 0.00 0.00 0.00 86 1017.8
20260905143704 55 113 1.0 3.0 0.00 0.00 0.00 87 1017.5
20260905143203 55 98 1.0 3.0 0.00 0.00 0.00 87 1017.5
20260905140704 54 112 0.0 1.0 0.00 0.00 0.00 87 1017.3
20260905133705 54 112 0.0 0.0 0.00 0.00 0.00 88 1017.2
20260905133203 54 112 0.0 0.0 0.00 0.00 0.00 88 1017.2